Temp
78 74 70 76 87 87 89 89 96 94 99 95 91 99 99 102 103 100 90 85 82 78 78 78 78 78 77 77 77 77 78 78
70 69 81 83 88 91 83 92 97 96 91 99 102 101 103 105 105 101 96 91 83 78 78 78 78 78 77 77 77 77 78 78
74 77 84 90 94 93 90 92 95 97 90 90 99 103 105 103 104 101 99 95 84 78 78 78 78 78 77 77 77 77 77 78
70 77 87 92 97 95 94 94 93 93 92 92 102 101 103 104 101 104 99 94 84 79 78 78 78 78 77 77 77 77 77 77
75 78 83 90 97 92 92 93 93 97 88 95 97 101 102 103 102 101 102 96 84 81 79 78 77 77 77 77 76 76 76 77
76 76 78 90 94 96 94 92 100 98 86 88 96 102 103 104 105 102 102 101 86 82 83 80 79 77 77 77 76 76 76 76
73 77 81 91 89 97 99 94 97 97 96 99 103 105 103 101 102 104 103 98 93 88 84 82 82 80 77 77 77 76 76 76
83 85 85 90 90 92 90 90 91 93 99 102 103 101 98 97 97 99 100 101 98 92 86 84 88 82 77 78 78 76 77 76
84 88 90 88 89 93 88 86 89 88 94 99 99 97 96 98 99 99 100 99 97 87 85 86 87 85 80 80 78 78 77 76
85 88 88 86 90 87 89 90 96 97 98 98 96 95 96 96 97 99 98 95 95 89 84 84 87 87 81 82 80 79 79 78
87 88 88 90 87 87 88 94 98 98 97 95 95 95 95 96 97 96 93 94 93 90 84 82 81 85 83 82 82 81 81 79
87 87 89 86 87 88 90 94 94 94 94 96 96 96 94 94 92 92 92 91 92 90 82 83 82 80 80 81 83 82 80 79
84 86 85 88 80 82 90 93 91 92 93 95 95 97 94 94 90 92 92 89 88 88 82 81 81 80 82 82 82 80 79 79
80 83 85 83 71 84 91 90 88 91 92 93 94 96 96 94 91 92 90 88 88 93 83 81 80 81 81 81 80 80 78 78
72 83 82 81 73 84 90 88 86 88 89 91 92 94 92 94 92 90 88 88 88 87 83 81 80 81 81 81 79 78 78 78
68 78 81 77 77 83 88 88 86 88 89 89 90 91 92 92 92 91 90 88 88 85 82 80 80 79 79 79 78 78 78 78
74 81 77 75 76 80 86 87 86 86 87 86 88 93 93 92 90 87 86 86 84 81 80 79 79 78 75 76 76 77 78 79
74 79 77 76 75 81 84 85 86 86 86 86 87 89 91 90 89 83 81 81 80 79 79 78 78 77 78 77 78 78 78 78
67 74 77 74 70 75 83 85 87 88 88 88 86 86 87 89 83 81 79 78 78 78 77 78 77 77 77 77 78 76 77 76
69 66 60 74 58 70 77 79 83 85 86 86 87 88 88 88 80 79 79 79 78 77 76 78 77 77 75 73 73 75 75 74
MSLP
1006.35 1004.65 1002.32 1000.07 999.17 998.84 999.33 1000.22 999.19 998.64 998.64 999.06 999.59 1000.29 1001.15 1002.10 1002.56 1003.46 1004.98 1006.09 1006.59 1007.41 1007.96 1008.44 1008.88 1009.37 1009.82 1010.21 1010.58 1011.16 1011.65 1012.02
1005.67 1003.33 1001.02 999.84 999.31 998.69 1000.17 999.19 998.76 998.85 998.73 998.96 999.60 1000.32 1001.13 1001.98 1002.51 1003.20 1004.40 1005.58 1006.51 1007.25 1007.85 1008.27 1008.78 1009.23 1009.72 1010.18 1010.69 1011.17 1011.70 1011.92
1004.12 1002.14 1000.55 999.23 998.27 998.14 998.58 998.43 998.20 998.42 998.91 999.71 1000.29 1000.73 1001.27 1001.91 1002.34 1002.76 1003.56 1004.58 1006.16 1007.05 1007.60 1008.18 1008.62 1009.15 1009.64 1010.00 1010.57 1010.90 1011.40 1011.61
1003.30 1001.44 999.84 998.65 997.77 997.90 997.71 997.91 998.69 998.60 999.33 999.60 1000.25 1000.78 1001.36 1001.79 1002.41 1002.65 1003.06 1004.05 1005.47 1006.58 1007.28 1007.98 1008.36 1008.81 1009.31 1009.55 1009.97 1010.31 1010.86 1011.20
1003.05 1001.25 999.39 998.18 997.91 998.09 998.11 997.93 998.31 998.48 999.33 999.82 1000.37 1000.94 1001.38 1001.68 1001.96 1002.30 1002.60 1003.36 1004.95 1006.19 1007.15 1007.66 1008.08 1008.37 1008.77 1009.28 1009.54 1009.67 1010.29 1010.68
1002.90 1001.22 999.74 998.73 998.27 998.60 998.23 998.23 998.70 999.26 999.46 999.84 1000.16 1000.45 1000.74 1000.88 1000.86 1001.34 1001.63 1002.27 1003.69 1005.10 1006.30 1007.27 1007.83 1008.14 1008.35 1008.64 1009.28 1009.44 1009.75 1010.05
1002.67 1001.25 999.96 999.20 998.77 998.28 998.61 998.47 998.58 999.15 999.21 999.59 999.72 999.77 1000.04 1000.60 1000.60 1000.64 1000.63 1001.15 1002.29 1003.40 1004.87 1005.68 1007.00 1007.85 1008.23 1008.29 1008.69 1009.04 1009.45 1009.70
1002.32 1001.05 999.89 999.19 998.72 998.75 998.98 998.93 999.15 999.18 999.28 999.38 999.24 999.53 1000.03 1000.33 1000.28 1000.36 1000.33 1000.38 1001.04 1002.18 1003.09 1004.27 1005.18 1006.51 1007.64 1007.86 1008.17 1008.40 1008.74 1009.01
1001.84 1000.92 1000.00 999.31 998.97 998.87 998.70 998.85 998.94 999.18 999.26 999.05 999.17 999.64 999.87 1000.08 1000.12 1000.11 1000.08 999.93 1000.37 1001.23 1001.98 1003.01 1003.91 1005.22 1006.33 1006.95 1007.35 1007.77 1008.14 1008.34
1001.63 1000.82 1000.11 999.44 999.19 998.84 998.80 998.50 998.53 998.77 998.53 998.87 998.98 999.50 999.91 999.96 999.83 999.69 999.66 999.70 1000.00 1000.76 1001.38 1002.11 1002.92 1003.91 1005.31 1006.02 1006.53 1006.86 1007.14 1007.30
1000.84 1000.34 999.88 999.48 998.91 998.75 998.38 998.49 998.29 998.16 998.32 998.47 998.58 998.99 999.63 999.49 999.36 999.21 999.38 999.49 999.70 1000.32 1000.87 1001.44 1002.10 1002.95 1004.13 1005.04 1005.62 1006.03 1006.32 1006.60
1000.22 999.66 999.20 998.84 998.20 998.54 998.16 998.18 997.92 997.96 997.91 998.01 998.00 998.20 998.67 998.75 998.62 998.77 998.92 999.16 999.40 999.70 1000.57 1001.12 1001.66 1002.31 1003.24 1004.13 1004.68 1005.35 1005.66 1006.07
999.08 999.18 998.34 998.78 997.36 997.30 997.76 997.85 997.49 997.54 997.41 997.26 997.37 997.48 997.75 997.93 998.15 998.33 998.61 998.71 998.84 999.28 1000.34 1001.04 1001.61 1002.37 1002.98 1003.72 1004.26 1004.81 1005.38 1005.79
998.53 998.93 997.77 998.92 996.46 997.02 997.33 996.97 996.90 996.90 996.70 996.46 996.48 996.70 996.58 997.05 997.59 997.87 998.14 998.19 998.44 998.67 999.99 1000.89 1001.65 1002.45 1003.04 1003.60 1004.10 1004.78 1005.23 1005.65
997.82 998.10 998.06 997.73 996.64 996.31 996.73 996.53 996.12 996.14 996.28 996.10 995.87 995.94 996.11 996.61 997.11 997.40 997.39 997.71 998.14 998.63 999.81 1000.72 1001.61 1002.37 1003.06 1003.60 1004.14 1004.66 1005.14 1005.54
997.15 997.47 997.11 996.69 996.05 995.38 995.55 995.49 995.07 995.03 995.13 995.36 995.49 995.54 995.45 995.96 996.58 996.89 997.05 997.63 998.19 998.68 999.61 1000.61 1001.44 1002.30 1003.02 1003.62 1004.20 1004.69 1004.97 1005.32
996.82 996.57 996.60 996.20 995.70 994.59 994.72 994.52 994.17 994.18 994.33 994.56 994.96 994.96 994.80 995.45 995.98 996.96 997.43 997.75 998.31 998.88 999.60 1000.55 1001.36 1002.25 1003.09 1003.61 1004.30 1004.61 1004.76 1005.07
996.62 996.31 996.12 995.36 994.52 993.98 993.81 993.56 993.54 993.41 993.51 993.88 994.39 994.66 994.78 994.91 995.46 996.99 997.63 998.09 998.85 999.45 999.93 1000.60 1001.31 1002.17 1002.87 1003.43 1003.96 1004.24 1004.47 1004.67
996.58 996.92 996.00 995.35 994.44 993.57 993.09 992.89 992.82 992.69 993.05 993.37 993.79 994.24 994.40 994.73 995.57 997.04 997.81 998.53 999.22 999.85 1000.25 1000.82 1001.54 1002.22 1002.62 1003.09 1003.38 1003.89 1004.12 1004.52
996.88 996.81 995.00 995.97 993.67 992.61 992.77 992.29 992.08 992.07 992.29 992.43 992.77 993.24 993.74 994.30 995.66 996.86 997.88 998.72 999.57 1000.14 1000.63 1001.13 1001.68 1002.23 1002.54 1003.08 1003.46 1003.67 1003.98 1004.35
Wind_Speed
6 12 16 14 3 4 8 9 11 5 7 2 10 11 12 11 9 18 17 15 16 23 21 20 20 18 18 18 17 15 13 12
8 18 22 12 8 3 4 23 3 6 6 6 11 5 8 8 9 18 17 16 16 23 20 20 19 18 18 17 15 14 13 12
15 19 20 16 17 12 7 10 7 3 2 10 10 12 9 8 6 9 16 16 19 24 21 20 20 19 18 17 15 14 14 13
15 21 22 16 12 14 12 2 12 5 9 6 13 13 8 7 6 7 10 13 17 23 23 20 19 19 18 18 18 17 16 14
20 20 21 15 5 9 13 11 6 11 3 5 16 10 3 4 6 7 7 14 15 15 17 20 18 19 19 18 18 18 17 15
20 17 21 17 15 7 13 10 7 4 3 6 5 9 8 11 9 15 14 14 18 17 16 14 13 18 19 19 18 17 17 16
23 22 19 15 17 15 13 4 9 1 6 5 10 14 5 7 8 9 7 14 20 20 18 17 14 14 17 19 19 17 15 15
22 21 18 19 18 11 15 9 13 14 11 15 14 4 6 11 10 10 12 4 17 17 19 18 14 14 15 13 11 11 11 11
23 24 24 21 22 19 23 18 12 20 18 16 14 12 12 13 15 12 13 7 8 14 14 18 14 11 9 8 8 9 12 10
28 26 27 26 25 26 25 24 18 24 17 16 12 10 13 15 13 13 10 6 4 16 13 15 12 10 11 10 9 9 11 13
29 26 27 27 28 26 29 24 24 23 21 20 17 11 13 15 14 9 7 6 6 10 14 13 10 10 11 10 10 11 11 12
29 29 29 30 28 26 26 21 24 22 22 23 21 15 14 14 9 6 5 5 6 4 13 12 13 8 6 7 8 9 6 6
32 29 31 25 32 28 24 25 26 25 23 22 19 18 17 12 9 5 4 8 7 6 13 12 11 9 3 5 5 5 4 6
27 29 32 26 31 25 25 22 22 23 21 20 22 18 12 7 7 4 7 7 7 6 15 12 10 7 5 4 5 2 4 4
33 29 30 29 31 28 25 26 25 20 21 19 19 20 6 7 8 8 9 7 6 7 14 13 10 6 7 5 4 3 4 4
29 25 27 30 29 28 25 26 25 20 19 16 19 22 11 7 9 9 5 4 4 6 11 13 8 6 5 4 4 4 4 4
28 25 27 24 26 29 22 21 23 24 17 16 18 17 8 7 8 6 4 3 5 7 8 9 8 8 5 5 4 4 4 6
28 25 23 23 25 24 23 20 22 20 17 14 14 17 12 8 4 6 6 6 6 6 7 8 7 6 6 5 7 5 5 6
31 23 28 25 25 25 24 23 22 17 16 15 14 17 18 14 10 9 8 8 7 7 10 8 8 5 4 4 2 4 3 3
28 23 21 20 20 26 18 21 21 18 19 19 18 18 19 16 13 11 10 9 9 9 10 7 8 6 6 4 3 3 4 4
Wind_Direction
222 232 252 277 266 320 61 149 274 300 121 300 83 74 80 109 133 128 138 157 170 173 177 176 175 174 173 175 177 182 183 186
249 264 250 268 265 138 316 227 143 271 326 97 85 99 72 105 149 139 148 160 166 173 180 180 180 178 178 179 179 180 189 191
250 256 263 267 242 147 240 316 203 244 44 101 91 101 116 128 151 164 162 163 158 172 182 185 181 181 182 178 180 183 195 199
251 250 253 259 286 299 299 327 309 171 259 126 146 109 124 138 172 200 162 151 156 173 178 187 185 183 185 182 184 186 195 201
257 271 279 282 310 295 289 305 304 46 131 42 98 110 112 149 180 196 195 156 151 168 180 183 189 187 186 190 191 187 194 201
269 271 275 294 302 306 306 276 48 347 215 282 107 151 168 219 224 190 193 178 153 161 175 187 193 195 191 188 198 194 195 198
253 259 268 274 288 286 282 253 287 233 250 284 284 292 326 294 270 288 230 187 158 164 173 177 192 197 200 194 196 196 201 200
249 264 274 278 280 294 284 266 290 294 266 254 278 332 266 267 273 280 292 212 177 176 168 170 181 190 194 198 202 197 200 198
255 256 267 290 296 302 294 262 235 221 273 297 305 312 306 289 274 272 279 299 182 177 165 169 181 178 182 194 196 200 204 201
256 262 272 276 283 288 289 293 278 278 284 281 283 297 300 287 284 285 283 313 317 174 167 178 172 174 178 189 189 196 201 199
252 251 258 269 271 280 279 279 290 292 291 291 280 271 268 260 260 259 290 307 304 169 176 173 175 175 175 191 187 194 198 201
251 257 260 261 268 273 272 278 276 271 267 266 270 260 258 258 259 263 273 273 258 210 175 170 181 174 165 176 179 193 185 160
256 260 264 278 273 260 264 265 267 274 275 271 274 268 253 255 261 277 279 245 226 148 163 172 175 182 159 178 186 169 142 153
253 255 258 260 266 266 271 271 270 276 273 265 261 251 249 247 296 280 254 226 207 190 160 164 167 178 190 180 164 141 156 161
249 247 262 254 263 262 257 261 259 256 265 275 280 274 246 246 262 255 231 195 176 158 148 159 159 165 186 148 146 191 167 168
255 249 250 245 251 257 255 254 258 259 247 261 273 273 234 244 287 288 106 114 160 145 137 156 152 158 171 152 171 190 183 185
252 246 248 253 258 266 271 271 267 242 250 255 265 274 219 232 264 109 114 117 110 127 132 147 153 163 158 175 169 226 181 188
261 258 262 262 264 262 254 254 259 260 263 255 276 287 291 229 225 141 131 120 127 143 152 148 143 165 172 174 189 195 186 182
259 269 269 270 268 267 265 269 275 268 278 271 270 277 281 277 131 135 133 136 150 161 141 148 139 179 178 173 161 168 150 153
252 251 256 256 268 254 262 266 260 251 246 248 244 242 245 244 129 140 139 140 143 140 144 163 163 172 140 141 176 181 199 101